[[{"header":{"parameterUnit":"m.s-1","parameterCategory":1,"la1":30.2991,"la2":30.254,"lo1":-89.0895,"lo2":-89.0444,"dy":0.0017,"dx":0.0017,"nx":28,"ny":28,"refTime":"2025-11-05T03:00:00:Z","depth":0,"parameterNumber":2,"parameterNumberName":"U-component_of_WINDS"},"data":[0,0,0,0,0,0,0,0,0,0,0,0,0,0,0,0,0,0,0,0,0,0,0,0,0,0,0,0,0,0,0,0,0,0,0,0,0,0,0,0,0,0,0,0,0,0,0,0,0,0,0,0,0,0,0,0,0,0,-1.1306,-1.1307,0,-1.1357,-1.1358,-1.1358,-1.1342,-1.1341,-1.134,-1.1339,-1.1392,-1.1395,-1.1397,0,0,0,0,0,0,0,0,0,0,0,0,0,-1.1196,-1.1199,-1.1306,-1.1307,-1.1307,-1.1357,-1.1358,-1.1358,-1.1342,-1.1341,-1.134,-1.1338,-1.1392,-1.1394,-1.1397,0,0,0,0,0,0,0,0,0,0,0,0,0,-1.1245,-1.1199,-1.1306,-1.1305,-1.1306,-1.1357,-1.1358,-1.1359,-1.1342,-1.1341,-1.1339,-1.1338,-1.1391,-1.1394,-1.1398,-1.1453,0,0,-1.1409,-1.1411,0,0,0,0,0,0,0,0,-1.1243,-1.125,-1.1305,-1.1305,-1.1306,-1.1342,-1.1339,-1.139,-1.1343,-1.1329,-1.1339,-1.1337,-1.1377,-1.1382,-1.1395,-1.1456,-1.1458,-1.1409,-1.1411,-1.1413,-1.1414,0,0,0,0,0,0,0,-1.1239,-1.1247,-1.1326,-1.1306,-1.1306,-1.1303,-1.1308,-1.1348,-1.1361,-1.133,-1.1329,-1.1335,-1.1377,-1.1391,-1.1396,-1.1459,-1.1409,-1.1412,-1.1415,-1.1416,-1.1568,-1.157,0,0,0,0,0,0,-1.1235,-1.1245,-1.1325,-1.1328,-1.127,-1.1306,-1.1312,-1.1332,-1.1361,-1.1364,-1.1336,-1.1334,-1.1386,-1.1392,-1.1398,-1.1464,-1.1413,-1.1416,-1.1419,-1.1566,-1.1568,-1.157,0,0,0,0,0,0,-1.1233,-1.1243,-1.1323,-1.1286,-1.1296,-1.131,-1.1332,-1.1334,-1.1348,-1.1366,-1.1368,-1.1348,-1.1385,-1.1393,-1.1439,-1.1466,-1.1418,-1.1421,-1.1564,-1.1567,-1.1569,-1.1598,0,0,0,0,0,0,-1.123,-1.1242,-1.1263,-1.1287,-1.1298,-1.1363,-1.1334,-1.1336,-1.1354,-1.1352,-1.1378,-1.138,-1.1384,-1.1434,-1.1443,-1.147,-1.1424,-1.1562,-1.1565,-1.1568,-1.1594,-1.1601,-1.1607,0,0,0,0,0,-1.1226,-1.1269,-1.1264,-1.1274,-1.1324,-1.1365,-1.1371,-1.1374,-1.1356,-1.1378,-1.1389,-1.138,-1.1462,-1.1439,-1.1449,-1.1477,-1.156,-1.1564,-1.1568,-1.1592,-1.16,-1.1607,0,0,0,0,0,0,-1.1248,-1.1272,-1.1267,-1.1318,-1.134,-1.1362,-1.1388,-1.1382,-1.1409,-1.1406,-1.1409,-1.1415,-1.1463,-1.1475,-1.1449,-1.1533,-1.1508,-1.1515,-1.1523,-1.1531,-1.1537,-1.1532,-1.1427,0,0,0,0,0,-1.1259,-1.129,-1.1309,-1.1353,-1.1364,-1.1374,-1.1392,-1.1393,-1.1415,-1.1424,-1.1439,-1.1461,-1.1492,-1.1512,-1.1541,-1.1597,-1.1602,-1.1621,-1.1627,-1.1632,-1.1637,-1.1667,-1.1676,-1.1584,-1.1584,-1.1584,0,0,-1.1282,-1.1299,-1.1318,-1.1358,-1.1374,-1.1406,-1.1382,-1.1417,-1.1441,-1.1429,-1.1474,-1.1486,-1.1511,-1.1562,-1.1586,-1.1574,-1.1664,-1.1638,-1.1641,-1.1644,-1.1673,-1.1681,-1.1689,-1.1587,-1.1586,-1.1586,0,0,-1.1339,-1.1355,-1.1393,-1.141,-1.1435,-1.1442,-1.1452,-1.1475,-1.1482,-1.1527,-1.152,-1.1548,-1.1601,-1.162,-1.1636,-1.1701,-1.1693,-1.1711,-1.1743,-1.1772,-1.1779,-1.1785,-1.1808,-1.1817,-1.1716,-1.1716,-1.1716,0,-1.1364,-1.1412,-1.1414,-1.1449,-1.1467,-1.1458,-1.1497,-1.1514,-1.1547,-1.156,-1.1547,-1.1613,-1.1629,-1.1684,-1.17,-1.1714,-1.1725,-1.1707,-1.1778,-1.1784,-1.179,-1.1812,-1.1821,-1.1718,-1.1718,-1.1718,-1.1717,0,-1.1441,-1.1474,-1.1502,-1.1534,-1.1555,-1.1592,-1.1601,-1.1622,-1.1621,-1.1629,-1.1676,-1.1695,-1.1728,-1.1742,-1.1741,-1.1797,-1.1789,-1.1777,-1.1752,-1.1801,-1.1821,-1.183,-1.1721,-1.172,-1.1719,-1.1719,0,0,-1.1513,-1.1546,-1.1556,-1.1571,-1.1598,-1.1624,-1.1661,-1.1693,-1.1711,-1.1735,-1.1766,-1.1812,-1.18,-1.1819,-1.182,-1.1846,-1.1896,-1.1831,-1.1831,-1.1842,-1.1959,-1.1967,-1.1977,-1.1892,-1.1893,-1.1895,-1.1957,0,-1.1572,-1.1636,-1.164,-1.1698,-1.1729,-1.1721,-1.1753,-1.1774,-1.1783,-1.1811,-1.1822,-1.1853,-1.1836,-1.1847,-1.1873,-1.1885,-1.192,-1.1881,-1.1921,-1.1922,-1.1914,-1.1988,-1.1997,-1.2054,-1.1965,-1.1966,-1.1967,0,-1.165,-1.1675,-1.1737,-1.176,-1.1773,-1.1802,-1.1831,-1.1858,-1.1881,-1.1886,-1.1907,-1.1905,-1.1944,-1.1919,-1.1971,-1.1945,-1.1962,-1.197,-1.1973,-1.1976,-1.1947,-1.1992,-1.2073,-1.2081,-1.198,-1.1979,-1.1978,0,-1.1695,-1.1746,-1.1788,-1.1801,-1.183,-1.185,-1.1863,-1.1885,-1.1904,-1.193,-1.1943,-1.1973,-1.199,-1.2014,-1.2021,-1.2002,-1.2074,-1.2049,-1.2079,-1.2079,-1.2094,-1.2092,-1.2177,-1.2106,-1.2106,-1.2106,-1.2105,0,-1.1761,-1.1798,-1.1809,-1.1836,-1.1878,-1.1882,-1.1924,-1.1935,-1.1955,-1.1984,-1.198,-1.2007,-1.2015,-1.2044,-1.2049,-1.2092,-1.21,-1.2105,-1.2106,-1.2105,-1.2104,-1.2116,-1.2112,-1.2108,-1.2107,-1.2107,-1.2106,0,-1.1818,-1.1827,-1.1873,-1.1896,-1.1903,-1.1933,-1.1953,-1.1979,-1.1988,-1.2025,-1.2033,-1.2048,-1.2082,-1.2091,-1.2132,-1.2135,-1.2186,-1.2183,-1.2178,-1.2177,-1.2207,-1.2203,-1.2301,-1.2314,-1.2235,-1.2235,-1.2236,0,-1.1859,-1.1888,-1.1914,-1.1932,-1.1946,-1.1977,-1.1996,-1.2001,-1.2022,-1.2051,-1.2073,-1.2107,-1.2133,-1.2188,-1.2202,-1.2234,-1.2232,-1.2264,-1.2236,-1.2234,-1.2232,-1.2229,-1.2232,-1.2269,-1.2269,-1.227,-1.2271,0,-1.193,-1.1933,-1.1961,-1.199,-1.2013,-1.2037,-1.206,-1.2076,-1.2085,-1.2108,-1.2142,-1.2163,-1.2205,-1.2238,-1.2269,-1.2283,-1.2279,-1.2279,-1.2288,-1.2287,-1.2282,-1.2284,-1.2191,-1.2277,-1.2276,-1.2276,-1.2275,-1.2275,-1.198,-1.2005,-1.2027,-1.2058,-1.2076,-1.2098,-1.2123,-1.2135,-1.2163,-1.2197,-1.2199,-1.2236,-1.226,-1.2302,-1.2317,-1.2347,-1.2338,-1.235,-1.2353,-1.2356,-1.2358,-1.2278,-1.2353,-1.2353,-1.2353,-1.2353,-1.2352,0,-1.205,-1.2064,-1.2093,-1.2125,-1.2149,-1.2143,-1.2168,-1.2189,-1.2221,-1.2244,-1.227,-1.231,-1.2342,-1.2359,-1.2391,-1.2412,-1.2411,-1.242,-1.2418,-1.2422,-1.2365,-1.2354,-1.2421,-1.2421,-1.2421,-1.2421,-1.2421,-1.2421,-1.209,-1.2132,-1.2138,-1.2189,-1.2203,-1.2239,-1.2253,-1.2273,-1.2291,-1.2335,-1.2362,-1.2372,-1.2393,-1.2427,-1.2456,-1.246,-1.2472,-1.2483,-1.2486,-1.2433,-1.2426,-1.2419,-1.2409,-1.2486,-1.2486,-1.254,-1.2541,-1.2541]},{"header":{"parameterUnit":"m.s-1","parameterCategory":1,"la1":30.2991,"la2":30.254,"lo1":-89.0895,"lo2":-89.0444,"dy":0.0017,"dx":0.0017,"nx":28,"ny":28,"refTime":"2025-11-05T03:00:00:Z","depth":0,"parameterNumber":3,"parameterNumberName":"V-component_of_WINDS"},"data":[0,0,0,0,0,0,0,0,0,0,0,0,0,0,0,0,0,0,0,0,0,0,0,0,0,0,0,0,0,0,0,0,0,0,0,0,0,0,0,0,0,0,0,0,0,0,0,0,0,0,0,0,0,0,0,0,0,0,0.2126,0.2127,0,0.2193,0.2194,0.2195,0.2237,0.2237,0.2237,0.2238,0.2303,0.2305,0.2306,0,0,0,0,0,0,0,0,0,0,0,0,0,0.2033,0.2034,0.2126,0.2127,0.2128,0.2193,0.2194,0.2195,0.2237,0.2237,0.2237,0.2238,0.2303,0.2305,0.2307,0,0,0,0,0,0,0,0,0,0,0,0,0,0.2084,0.2035,0.2126,0.2157,0.216,0.2193,0.2194,0.2195,0.2237,0.2237,0.2237,0.2238,0.2302,0.2304,0.2307,0.2314,0,0,0.2314,0.2315,0,0,0,0,0,0,0,0,0.2081,0.2087,0.2151,0.2155,0.2159,0.2207,0.2185,0.2235,0.2237,0.2208,0.2238,0.2238,0.2271,0.2276,0.2287,0.2317,0.232,0.2314,0.2315,0.2316,0.2317,0,0,0,0,0,0,0,0.2077,0.2084,0.2153,0.2152,0.2157,0.2166,0.2174,0.2195,0.2236,0.221,0.2213,0.2221,0.2273,0.2285,0.2289,0.2321,0.2314,0.2316,0.2317,0.2318,0.236,0.236,0,0,0,0,0,0,0.2069,0.2081,0.2151,0.2155,0.212,0.2168,0.2176,0.2191,0.2236,0.2243,0.222,0.2223,0.2281,0.2287,0.2292,0.2304,0.2316,0.2318,0.232,0.236,0.236,0.236,0,0,0,0,0,0,0.2067,0.2075,0.2148,0.2119,0.2129,0.2169,0.2185,0.2192,0.2205,0.2244,0.2251,0.2226,0.2282,0.2289,0.2308,0.2307,0.2319,0.2322,0.2361,0.236,0.236,0.2327,0,0,0,0,0,0,0.2064,0.2074,0.2077,0.2119,0.213,0.2164,0.2185,0.2193,0.2209,0.2212,0.2251,0.2257,0.2282,0.2305,0.2311,0.231,0.2323,0.2361,0.236,0.236,0.2329,0.2326,0.2323,0,0,0,0,0,0.206,0.2064,0.2077,0.2085,0.2136,0.2164,0.217,0.22,0.2208,0.2212,0.2238,0.2256,0.2306,0.2306,0.2313,0.2313,0.2361,0.236,0.236,0.233,0.2326,0.2323,0,0,0,0,0,0,0.202,0.207,0.2085,0.2103,0.2129,0.2171,0.2176,0.2195,0.2218,0.222,0.2255,0.2263,0.228,0.2298,0.2298,0.2323,0.2336,0.2336,0.231,0.2307,0.2305,0.23,0.2325,0,0,0,0,0,0.2014,0.2033,0.2076,0.2087,0.21,0.2135,0.2149,0.2169,0.2197,0.2208,0.2235,0.2261,0.2283,0.2296,0.2318,0.2331,0.2341,0.2335,0.2332,0.233,0.233,0.234,0.2338,0.2358,0.2358,0.2358,0,0,0.2,0.203,0.204,0.208,0.2102,0.2121,0.2144,0.2163,0.2178,0.2211,0.2232,0.2252,0.2283,0.2301,0.2309,0.2317,0.2327,0.2329,0.2327,0.2329,0.2339,0.2337,0.2336,0.2357,0.2357,0.2357,0,0,0.1985,0.2009,0.2022,0.2045,0.2079,0.2103,0.2106,0.2146,0.2161,0.2183,0.2209,0.2226,0.2262,0.2283,0.2299,0.2293,0.2311,0.2299,0.2285,0.2294,0.2293,0.2292,0.229,0.2289,0.2299,0.2299,0.2299,0,0.1963,0.1994,0.2026,0.2044,0.2061,0.2093,0.2107,0.2127,0.2166,0.2177,0.2184,0.2231,0.2254,0.2278,0.2276,0.2288,0.2292,0.2295,0.2291,0.229,0.2289,0.2288,0.2287,0.2297,0.2298,0.2298,0.2298,0,0.1966,0.1987,0.1993,0.2032,0.2049,0.2064,0.2099,0.2113,0.2132,0.2155,0.2177,0.2206,0.2235,0.2241,0.226,0.2267,0.2271,0.2284,0.2298,0.2285,0.2285,0.2285,0.2295,0.2296,0.2296,0.2297,0,0,0.1927,0.1985,0.1986,0.2005,0.2046,0.2062,0.2079,0.2108,0.212,0.2146,0.2161,0.2191,0.2204,0.2222,0.2243,0.225,0.2245,0.2263,0.2264,0.2259,0.2256,0.2247,0.2246,0.2257,0.2257,0.2257,0.2254,0,0.1919,0.1952,0.1982,0.2004,0.2024,0.2055,0.207,0.2096,0.2118,0.2138,0.2162,0.2183,0.2198,0.2209,0.2218,0.2244,0.2245,0.2244,0.2272,0.2272,0.2264,0.2246,0.2236,0.2231,0.2254,0.2254,0.2254,0,0.1914,0.194,0.1964,0.2004,0.2014,0.2026,0.2057,0.2075,0.2105,0.2121,0.2141,0.2164,0.2183,0.2194,0.222,0.2219,0.2232,0.2246,0.2247,0.2251,0.2263,0.225,0.223,0.223,0.2254,0.2254,0.2254,0,0.1884,0.1925,0.1946,0.196,0.2007,0.2016,0.2035,0.2067,0.2083,0.2108,0.2119,0.2146,0.2161,0.2181,0.2211,0.2216,0.2234,0.2248,0.2248,0.2247,0.2251,0.225,0.2233,0.2258,0.2258,0.2258,0.2258,0,0.1872,0.1886,0.1933,0.1946,0.1962,0.1996,0.2012,0.2034,0.2061,0.2079,0.2107,0.2122,0.2159,0.2179,0.2201,0.2221,0.2227,0.224,0.2246,0.2238,0.2236,0.2247,0.2248,0.2258,0.2258,0.2258,0.2258,0,0.1842,0.1874,0.1899,0.1942,0.1953,0.1963,0.2,0.2013,0.2037,0.2058,0.2065,0.2102,0.2127,0.2158,0.2192,0.2207,0.2224,0.2233,0.2214,0.2218,0.2217,0.2217,0.2207,0.2208,0.223,0.223,0.223,0,0.1833,0.1844,0.1889,0.1903,0.1922,0.1944,0.1962,0.1995,0.2012,0.2048,0.2057,0.2084,0.2108,0.2146,0.2175,0.2202,0.2212,0.2206,0.2216,0.2208,0.2213,0.2212,0.2214,0.2204,0.2204,0.2203,0.2203,0,0.1813,0.1829,0.1853,0.1882,0.1902,0.1927,0.1953,0.1963,0.2002,0.2019,0.2045,0.2064,0.21,0.2126,0.2157,0.2176,0.2196,0.22,0.2202,0.2194,0.2183,0.219,0.2209,0.22,0.22,0.22,0.2201,0.2201,0.1793,0.1806,0.1839,0.1865,0.1889,0.1913,0.1928,0.1954,0.1977,0.201,0.2028,0.2054,0.2085,0.2128,0.2147,0.2167,0.2175,0.2177,0.2177,0.2178,0.2176,0.2179,0.2173,0.2173,0.2173,0.2173,0.2173,0,0.1776,0.1799,0.1823,0.1859,0.188,0.1898,0.1928,0.1943,0.1966,0.1994,0.2017,0.2048,0.2074,0.2106,0.2134,0.2144,0.2154,0.2151,0.2151,0.2155,0.2167,0.2163,0.2142,0.2142,0.2142,0.2142,0.2142,0.2142,0.1769,0.1791,0.1811,0.1845,0.1868,0.1895,0.1911,0.1933,0.1955,0.1988,0.2011,0.2032,0.2062,0.2093,0.2117,0.2126,0.2136,0.2129,0.2141,0.2151,0.2154,0.2157,0.2153,0.2131,0.2131,0.2127,0.2127,0.2127]}]]